Weather History for Sturgis, MI

Change the Weather History Date:

Sunday, February 12, 2012

  Actual Average (KHAI) Record (KHAI)
Temperature  
Mean Temperature 22 °F -  
Max Temperature 28 °F 33 °F 57 °F (1984)
Min Temperature 17 °F 15 °F -17 °F (2014)
Degree Days  
Heating Degree Days 42    
Moisture  
Dew Point 15 °F    
Average Humidity 70    
Maximum Humidity 86    
Minimum Humidity 59    
Precipitation  
Precipitation 0.00 in - - ()
Sea Level Pressure  
Sea Level Pressure 30.19 in    
Wind  
Wind Speed 11 mph (WNW)    
Max Wind Speed 18 mph    
Max Gust Speed 25 mph    
Visibility 10 miles    
Events Snow    
Averages and records for this station are not official NWS values.
T = Trace of Precipitation, MM = Missing Value Source: NWS Daily Summary

Daily Weather History Graph

Daily Weather History Graph

Search for Another Location

Airport:

Trip Planner

Search our weather history database for the weather conditions in past years. The results will help you decide how hot, cold, wet, or windy it might be!

Date:

Astronomy

Feb. 12, 2012 Rise Set
Actual Time 7:41 AM EST 6:10 PM EST
Civil Twilight 7:13 AM EST 6:39 PM EST
Nautical Twilight 6:40 AM EST 7:12 PM EST
Astronomical Twilight 6:08 AM EST 7:44 PM EST
Moon No Moon Rise 9:53 AM EST (2/12)
Length of Visible Light 11h 26m
Length of Day
10h 28m
Waning Gibbous, 72% of the Moon is Illuminated
Feb 12
Waning Gibbous
Feb 14
Last Quarter
Feb 21
New
Feb 29
First Quarter
Mar 8
Full

Hourly Weather History & Observations

Time (EST) Temp. Windchill Dew Point Humidity Pressure Visibility Wind Dir Wind Speed Gust Speed Precip Events Conditions
12:15 AM 17.6 °F 7.3 °F 12.2 °F 79% 30.20 in 10.0 mi West 8.1 mph - N/A Snow Light Snow
12:34 AM 17.6 °F 7.3 °F 12.2 °F 79% 30.19 in 10.0 mi West 8.1 mph - N/A Snow Light Snow
12:55 AM 19.4 °F 8.6 °F 12.2 °F 74% 30.19 in 10.0 mi West 9.2 mph - N/A Snow Light Snow
1:14 AM 19.4 °F 8.6 °F 12.2 °F 74% 30.19 in 10.0 mi West 9.2 mph - N/A Snow Light Snow
1:34 AM 19.4 °F 8.6 °F 12.2 °F 74% 30.19 in 10.0 mi West 9.2 mph - N/A Snow Light Snow
1:55 AM 19.4 °F 9.5 °F 12.2 °F 74% 30.19 in 10.0 mi West 8.1 mph - N/A Snow Light Snow
2:14 AM 19.4 °F 8.6 °F 12.2 °F 74% 30.19 in 10.0 mi West 9.2 mph - N/A   Overcast
2:35 AM 19.4 °F 8.6 °F 14.0 °F 80% 30.19 in 10.0 mi West 9.2 mph 16.1 mph N/A   Overcast
2:55 AM 19.4 °F 8.6 °F 14.0 °F 80% 30.19 in 10.0 mi West 9.2 mph - N/A   Overcast
3:14 AM 19.4 °F 7.9 °F 14.0 °F 80% 30.18 in 10.0 mi WNW 10.4 mph 16.1 mph N/A   Overcast
3:35 AM 21.2 °F 10.1 °F 15.8 °F 80% 30.18 in 10.0 mi West 10.4 mph - N/A   Overcast
3:55 AM 21.2 °F 10.1 °F 15.8 °F 80% 30.18 in 10.0 mi West 10.4 mph - N/A   Overcast
4:14 AM 21.2 °F 10.1 °F 15.8 °F 80% 30.17 in 10.0 mi WNW 10.4 mph - N/A   Overcast
4:35 AM 21.2 °F 10.9 °F 15.8 °F 80% 30.17 in 10.0 mi West 9.2 mph - N/A   Overcast
4:55 AM 21.2 °F 10.1 °F 15.8 °F 80% 30.17 in 10.0 mi West 10.4 mph - N/A Snow Light Snow
5:14 AM 21.2 °F 10.1 °F 15.8 °F 80% 30.17 in 10.0 mi West 10.4 mph - N/A   Overcast
5:35 AM 21.2 °F 10.1 °F 17.6 °F 86% 30.17 in 10.0 mi WNW 10.4 mph - N/A Snow Light Snow
5:55 AM 21.2 °F 10.1 °F 17.6 °F 86% 30.17 in 10.0 mi WNW 10.4 mph 18.4 mph N/A   Overcast
6:14 AM 21.2 °F 9.5 °F 15.8 °F 80% 30.16 in 10.0 mi WNW 11.5 mph 18.4 mph N/A   Overcast
6:35 AM 21.2 °F 7.3 °F 15.8 °F 80% 30.17 in 10.0 mi WNW 16.1 mph 20.7 mph N/A   Overcast
6:55 AM 21.2 °F 7.3 °F 15.8 °F 80% 30.17 in 10.0 mi NW 16.1 mph 23.0 mph N/A   Overcast
7:15 AM 21.2 °F 10.1 °F 15.8 °F 80% 30.17 in 10.0 mi NW 10.4 mph 17.3 mph N/A   Overcast
7:35 AM 21.2 °F 7.8 °F 15.8 °F 80% 30.18 in 10.0 mi NW 15.0 mph 19.6 mph N/A   Overcast
7:54 AM 21.2 °F 9.5 °F 15.8 °F 80% 30.18 in 10.0 mi NW 11.5 mph 21.9 mph N/A   Overcast
8:15 AM 21.2 °F 6.8 °F 15.8 °F 80% 30.19 in 10.0 mi NW 17.3 mph 24.2 mph N/A   Overcast
8:35 AM 21.2 °F 8.9 °F 15.8 °F 80% 30.19 in 10.0 mi NW 12.7 mph 19.6 mph N/A   Overcast
8:54 AM 23.0 °F 10.1 °F 15.8 °F 74% 30.19 in 10.0 mi NW 15.0 mph 20.7 mph N/A   Overcast
9:15 AM 23.0 °F 12.4 °F 15.8 °F 74% 30.19 in 10.0 mi WNW 10.4 mph - N/A   Overcast
9:35 AM 23.0 °F 13.1 °F 15.8 °F 74% 30.20 in 10.0 mi WNW 9.2 mph 23.0 mph N/A   Overcast
9:55 AM 24.8 °F 13.4 °F 15.8 °F 69% 30.21 in 10.0 mi WNW 12.7 mph 17.3 mph N/A   Overcast
10:15 AM 24.8 °F 12.9 °F 15.8 °F 69% 30.21 in 10.0 mi WNW 13.8 mph 23.0 mph N/A   Overcast
10:34 AM 24.8 °F 14.0 °F 15.8 °F 69% 30.21 in 10.0 mi WNW 11.5 mph - N/A   Overcast
10:55 AM 24.8 °F 11.1 °F 15.8 °F 69% 30.21 in 10.0 mi WNW 18.4 mph 23.0 mph N/A   Overcast
11:15 AM 24.8 °F 11.5 °F 15.8 °F 69% 30.21 in 10.0 mi WNW 17.3 mph 20.7 mph N/A   Mostly Cloudy
11:34 AM 24.8 °F 11.9 °F 17.6 °F 74% 30.21 in 10.0 mi WNW 16.1 mph 24.2 mph N/A   Overcast
11:55 AM 24.8 °F 13.4 °F 15.8 °F 69% 30.20 in 10.0 mi West 12.7 mph 18.4 mph N/A   Overcast
12:15 PM 24.8 °F 12.4 °F 15.8 °F 69% 30.20 in 10.0 mi West 15.0 mph 25.3 mph N/A   Mostly Cloudy
12:34 PM 24.8 °F 12.9 °F 15.8 °F 69% 30.20 in 10.0 mi West 13.8 mph 19.6 mph N/A   Mostly Cloudy
12:55 PM 26.6 °F 14.7 °F 15.8 °F 64% 30.20 in 10.0 mi WNW 15.0 mph 24.2 mph N/A   Mostly Cloudy
1:15 PM 26.6 °F 15.2 °F 15.8 °F 64% 30.19 in 10.0 mi West 13.8 mph - N/A   Scattered Clouds
1:34 PM 26.6 °F 14.3 °F 15.8 °F 64% 30.19 in 10.0 mi West 16.1 mph 19.6 mph N/A   Clear
1:55 PM 26.6 °F 15.2 °F 15.8 °F 64% 30.19 in 10.0 mi WNW 13.8 mph 21.9 mph N/A   Clear
2:14 PM 26.6 °F 14.7 °F 15.8 °F 64% 30.18 in 10.0 mi West 15.0 mph 19.6 mph N/A   Clear
2:35 PM 26.6 °F 16.2 °F 15.8 °F 64% 30.18 in 10.0 mi West 11.5 mph 23.0 mph N/A   Clear
2:55 PM 26.6 °F 15.7 °F 15.8 °F 64% 30.18 in 10.0 mi WNW 12.7 mph 19.6 mph N/A   Clear
3:15 PM 26.6 °F 15.7 °F 15.8 °F 64% 30.18 in 10.0 mi WNW 12.7 mph 20.7 mph N/A   Clear
3:35 PM 28.4 °F 17.0 °F 15.8 °F 59% 30.19 in 10.0 mi WNW 15.0 mph 23.0 mph N/A   Clear
3:55 PM 28.4 °F 17.0 °F 17.6 °F 64% 30.19 in 10.0 mi West 15.0 mph 18.4 mph N/A   Clear
4:14 PM 28.4 °F 18.5 °F 17.6 °F 64% 30.19 in 10.0 mi WNW 11.5 mph 18.4 mph N/A   Clear
4:35 PM 28.4 °F 17.5 °F 17.6 °F 64% 30.19 in 10.0 mi West 13.8 mph 20.7 mph N/A   Clear
4:55 PM 28.4 °F 18.5 °F 15.8 °F 59% 30.18 in 10.0 mi West 11.5 mph 21.9 mph N/A   Clear
5:14 PM 28.4 °F 19.7 °F 15.8 °F 59% 30.18 in 10.0 mi West 9.2 mph - N/A   Clear
5:35 PM 28.4 °F 20.4 °F 15.8 °F 59% 30.18 in 10.0 mi West 8.1 mph 16.1 mph N/A   Clear
5:54 PM 28.4 °F 18.5 °F 15.8 °F 59% 30.18 in 10.0 mi West 11.5 mph - N/A   Clear
6:15 PM 26.6 °F 16.2 °F 14.0 °F 59% 30.18 in 10.0 mi West 11.5 mph 16.1 mph N/A   Clear
6:35 PM 26.6 °F 18.2 °F 14.0 °F 59% 30.18 in 10.0 mi West 8.1 mph - N/A   Clear
6:54 PM 26.6 °F 18.2 °F 14.0 °F 59% 30.18 in 10.0 mi West 8.1 mph - N/A   Clear
7:15 PM 26.6 °F 18.2 °F 14.0 °F 59% 30.18 in 10.0 mi West 8.1 mph - N/A   Clear
7:35 PM 26.6 °F 18.2 °F 14.0 °F 59% 30.18 in 10.0 mi West 8.1 mph - N/A   Clear
7:55 PM 24.8 °F 16.1 °F 14.0 °F 64% 30.18 in 10.0 mi WSW 8.1 mph - N/A   Clear
8:15 PM 24.8 °F 17.9 °F 12.2 °F 59% 30.19 in 10.0 mi WSW 5.8 mph - N/A   Clear
8:34 PM 23.0 °F 14.7 °F 14.0 °F 68% 30.19 in 10.0 mi WSW 6.9 mph - N/A   Clear
8:55 PM 23.0 °F 14.7 °F 12.2 °F 63% 30.18 in 10.0 mi WSW 6.9 mph - N/A   Clear
9:15 PM 24.8 °F 16.1 °F 12.2 °F 59% 30.18 in 10.0 mi WSW 8.1 mph - N/A   Clear
9:34 PM 24.8 °F 16.9 °F 12.2 °F 59% 30.17 in 10.0 mi WSW 6.9 mph - N/A   Clear
9:55 PM 24.8 °F 16.1 °F 12.2 °F 59% 30.17 in 10.0 mi WSW 8.1 mph - N/A   Clear
10:15 PM 24.8 °F 16.9 °F 12.2 °F 59% 30.17 in 10.0 mi WSW 6.9 mph - N/A   Clear
10:35 PM 24.8 °F 15.3 °F 12.2 °F 59% 30.17 in 10.0 mi WSW 9.2 mph - N/A   Clear
10:55 PM 24.8 °F 15.3 °F 12.2 °F 59% 30.17 in 10.0 mi WSW 9.2 mph - N/A   Clear
11:14 PM 24.8 °F 14.0 °F 14.0 °F 64% 30.17 in 10.0 mi West 11.5 mph - N/A   Clear
11:35 PM 24.8 °F 15.3 °F 15.8 °F 69% 30.16 in 10.0 mi West 9.2 mph - N/A   Clear
11:54 PM 24.8 °F 15.3 °F 15.8 °F 69% 30.16 in 10.0 mi West 9.2 mph - N/A   Clear